Cloud_Cover
100 100 100 100 100 100 100 100 98 100 100 79 47 99 100 100 100 100 97 80 100 94 8 5 83 26 54 33 67 22 4 1 2 95 100 24 5 5 54 24 99 76 5 4 4
100 100 100 100 100 100 100 100 80 100 100 100 70 60 97 100 100 100 100 22 100 35 5 54 8 33 94 85 98 36 5 0 5 60 100 62 8 19 4 34 100 99 5 1 5
100 100 100 100 100 100 100 100 100 100 100 100 100 85 100 100 100 100 100 100 100 100 100 37 100 6 71 100 100 100 28 5 29 5 82 100 18 8 5 80 100 100 8 51 43
100 100 100 100 100 100 100 100 100 100 83 100 100 100 64 100 100 100 100 100 100 100 97 63 100 78 92 100 100 46 5 5 2 1 5 51 100 100 71 100 53 100 100 14 99
100 100 100 100 100 100 100 100 100 100 83 99 100 100 100 97 100 100 100 100 100 100 100 100 54 6 6 10 72 72 5 5 0 0 9 97 100 100 100 100 73 100 46 10 97
100 100 100 100 100 100 100 100 100 100 23 78 62 100 100 97 100 100 100 100 100 100 98 100 100 93 70 4 5 5 5 4 4 0 1 1 15 98 100 100 100 100 94 100 84
100 100 100 100 100 100 100 100 100 100 51 7 60 100 9 100 100 100 100 100 100 100 100 100 100 100 93 10 7 28 5 5 2 0 0 0 1 13 100 100 100 100 100 100 96
86 94 100 100 100 100 100 100 100 100 100 6 5 5 19 100 100 75 100 100 100 100 98 85 100 100 100 100 26 5 5 0 3 0 0 0 4 81 76 100 100 100 100 100 100
78 54 99 100 100 100 100 100 100 100 100 100 10 5 12 100 100 100 100 100 100 100 76 6 100 100 100 100 100 97 4 36 70 0 0 0 0 59 6 3 99 100 100 100 100
100 99 99 100 100 100 100 100 100 100 100 94 27 14 4 100 99 100 100 100 52 99 100 57 88 100 100 100 100 65 5 11 100 0 0 5 0 5 4 3 81 100 100 100 50
21 100 100 100 100 100 100 100 100 100 100 6 5 38 44 100 100 100 100 100 100 100 100 100 70 87 100 100 100 100 1 3 46 0 1 5 5 5 2 4 100 100 100 96 100
0 0 58 100 100 100 100 100 98 100 98 100 95 100 100 47 100 100 100 100 100 94 100 100 100 100 100 100 48 8 2 60 5 5 4 4 11 6 4 0 4 5 5 48 95
0 0 1 4 25 100 100 100 100 100 100 95 86 100 100 33 46 100 100 100 96 69 100 69 78 100 100 100 98 94 12 88 4 100 5 5 80 4 3 14 61 4 1 81 82
0 0 1 0 47 60 100 100 100 100 100 100 50 13 51 16 0 92 100 100 100 67 60 50 93 99 100 100 100 100 100 94 22 53 19 5 80 16 10 2 4 0 5 22 100
1 0 5 0 0 25 35 100 100 100 100 7 20 84 5 39 6 100 100 100 100 100 100 95 99 100 100 100 100 98 100 5 5 4 5 23 7 100 4 0 0 2 26 100 82
83 18 9 79 31 0 37 100 100 100 100 72 99 81 24 4 37 100 100 100 100 100 100 100 22 46 100 100 100 100 100 41 2 1 4 73 0 100 88 4 0 5 100 100 100
5 36 55 63 79 0 41 100 100 100 90 5 12 64 16 27 96 100 100 100 100 94 60 76 52 100 100 100 100 100 100 98 6 3 4 12 1 100 99 88 3 5 5 5 58
5 5 12 48 4 0 62 100 100 100 100 0 0 76 100 93 100 100 100 100 100 100 100 100 87 99 100 100 100 100 100 51 22 12 0 4 18 99 99 100 5 2 80 96 57
99 77 100 100 52 6 94 100 100 100 21 14 70 47 100 88 100 100 100 100 100 100 100 100 100 100 100 100 100 100 100 100 23 0 2 14 29 7 28 99 11 18 91 97 84
99 100 100 99 100 96 100 100 100 100 91 100 100 46 100 100 99 14 100 100 100 100 100 100 100 100 100 100 100 100 100 93 91 4 5 24 5 5 82 20 9 81 40 5 54
100 100 99 98 100 100 100 100 100 100 100 100 84 100 100 100 100 100 100 100 100 100 100 100 100 100 100 100 100 100 100 100 100 84 5 5 71 94 19 56 7 2 6 40 66
100 100 100 100 100 100 100 100 100 100 100 100 100 100 100 100 100 100 100 100 100 100 100 100 100 100 100 100 100 100 98 94 7 11 5 5 87 21 72 100 100 5 8 5 82
100 100 100 97 100 100 100 100 100 100 100 100 100 79 89 100 100 100 100 100 100 100 100 100 100 96 99 60 71 16 38 50 33 46 100 100 66 100 76 99 100 4 2 36 72
100 100 100 100 100 100 88 100 100 100 100 100 100 100 100 100 100 100 100 100 100 100 100 100 100 99 42 66 63 81 100 100 100 31 81 62 91 35 10 5 24 79 79 6 10
100 100 50 99 100 99 30 90 61 100 100 100 100 100 100 97 98 100 100 100 100 100 100 100 34 49 62 85 93 89 67 58 13 95 10 92 1 5 10 5 5 5 85 100 99
100 100 100 100 89 100 92 52 9 100 100 100 100 100 100 77 98 100 100 100 100 100 100 100 100 100 100 100 100 54 26 100 100 31 5 54 22 10 7 3 9 62 51 52 100
100 100 66 27 100 100 70 4 5 99 100 100 65 100 100 38 100 100 100 100 100 100 100 100 100 100 100 100 100 98 81 100 100 88 10 4 84 34 5 2 0 4 91 100 100